Location: *
(55.5817°S, 142.4781°W)
Time: 07:43:41
(UTC+00:00)

Cosmos 1656 - Pass Details

Date: 29 April 2025
Orbit: 796 x 849 km, 71.1° (Epoch: 23 May)

Event Time Altitude Azimuth Distance (km) Brightness Sun altitude
Exits shadow 13:53:33 68° 246° (WSW) 877 3.5 -25.2°
Maximum altitude 13:53:43 69° 233° (SW) 874 3.5 -25.2°
Drops below altitude 10° 13:59:13 10° 148° (SSE) 2,408 6.6 -24.4°
Sets 14:01:40 0° 145° (SE) 3,343 7.4 -24.1°
